Погода в Токмаке

Погода в Токмаке : погода сейчас, прогноз погоды и архив. Всё, что Вы хотите узнать о погоде в Токмаке!

Поиск расширенной информации на нашем сайте:

Другие новости

Новости СМИ2

Главная страница сайта

Новости сайта

03.07.2017

Напоминаем, что на нашем специализированном сайте Метеоцентр.Азия вы можете получить высокодетализированные автоматические прогнозы погоды по пунктам России, СНГ и мира в авиационном формате (включающие направление и скорость ветра, видимость, явления погоды, количество и форму облачности, нижнюю и верхнюю границу облачности).


Погода в Токмаке - сегодня

Время (UTC), дата Ветер
(°,м/с) 
Видим.   Явления Облачность Т
(°С)
Тd
(°С)
f(%) Тe
(°С)
Pmin
(гПа)
dP
(гПа)
Po
(мм)
O2
(г/м3)
Тmin Tmax R s Состояние
почвы
21 19.11.17 тихо ()   н/о    ясно 
-6.4 -8 88 -6  1038.4  -1.4  702  290           
00 20.11.17 тихо ()   н/о    ясно 
-7.1 -8.5 90 -7  1037.4  -1.1  701  291           
03 20.11.17 110 (В) 20000 м  гроза, пыльная буря{туман}  ясно 
-6.6 -8.6 86 -6    -0.3  701  290           
06 20.11.17 тихо ()   20000 м    ясно 
+4.2 -5.6 49 +4  1032.3  -0.4  701  279  -7.4         
09 20.11.17 270 (З) 20000 м    ясно 
+6.6 -5.6 41 +8  1030.1  -1.2  700  276           
12 20.11.17 тихо ()   20000 м    ясно 
+1.2 -4 68 +1  1032.8  0.7  701  281           
15 20.11.17 тихо ()   н/о    ясно 
-2.4 -4.7 84 -2  1034.4  0.2  701  285    +7.1       
18 20.11.17 тихо ()   н/о    ясно 
-3.8 -6.3 83 -4  1033.5  -1.3  700  286    +7.1       
21 20.11.17 тихо ()   н/о    ясно 
-4.8 -5.8 93 -5  1032.7  -1.1  699  287           
00 21.11.17 090 (В) н/о    ясно 
+0.6 -6.7 58 -1  1029.9  -0.6  698  281           
03 21.11.17 020 (С) 20000 м    ясно 
+2.1 -7.6 49 +3  1029.5  0.1  699  280           
06 21.11.17 090 (В) 20000 м    3/0 верхняя 
[Ci fib]
+11.7 -8.6 23 +11  1025.2  -0.9  698  270  -5.3         
09 21.11.17 290 (З) 20000 м    1/0 верхняя 
[Ci fib]
+12.4 -7.4 24 +13  1023.3  -1.4  697  269           
12 21.11.17 тихо ()   20000 м    ясно 
+6.9 -2.7 50 +7  1026.4  1.1  698  274           
15 21.11.17 090 (В) н/о    ясно 
+0.7 -2.9 77 +1  1029.2  0.4  698  281    +15.1       
18 21.11.17 070 (В) н/о    ясно 
-1.3 -4.9 76 -2  1028.2  -1.5  697  283    +15.1       
21 21.11.17 110 (В) н/о    ясно 
+6.8 -8 34 +5  1023.8  -1.4  696  274           
00 22.11.17 090 (В) н/о    ясно 
+7 -9.8 29 +6  1023.2  -0.4  695  274           
03 22.11.17 090 (В) 20000 м    ясно 
+7.3 -10.7 26 +6  1022.8  -0.3  695  274           
06 22.11.17 090 (В) 20000 м    ясно 
+15.2 -7.8 20 +15  1019.2  -0.8  695  266  -1.9         
09 22.11.17 090 (В) 15  20000 м    ясно 
+17 -6.7 19 +16  1016.8  -1.7  693  264           
12 22.11.17 110 (В) 20000 м    ясно 
+11.6 -6.7 27 +11  1018.1  -0.4  693  268           
15 22.11.17 110 (В) н/о    ясно 
+9.2 -5.7 34 +8  1018.8  -0.1  693  271    +17.3       
18 22.11.17 090 (В) н/о    ясно 
+8.5 -6 35 +7  1017.7  -1.2  692  271    +17.3       
21 22.11.17 070 (В) н/о    ясно 
+8.4 -7.4 32 +7  1016.5  -1.2  691  271           
Время (UTC), дата Ветер
(°,м/с) 
Видим.   Явления Облачность Т
(°С)
Тd
(°С)
f(%) Тe
(°С)
Pmin
(гПа)
dP
(гПа)
Po
(мм)
O2
(г/м3)
Тmin Tmax R s Состояние
почвы

Для получения пояснительной информации подведите курсор к названию столбца.

ПОГОДА в Токмаке - архив

Всё, что Вы хотите узнать о погоде в Токмаке - удобно и подробно!

Выберите нужную дату (начиная с 1 января 2015* года) и нажмите кнопку "Найти".
Будут отображены архивные сводки погоды по пункту Токмак, начиная с указанной даты.


Отображать данные в формате CSV (для использования в таблицах Excel)


Внимание! Наш архив погоды предназначен исключительно для личного некоммерческого использования в познавательных целях. Если Вам необходимы официальные справки о состоянии погоды (для производственных, юридических, коммерческих и т.п. целей), обращайтесь в органы Росгидромета.

*Примечание: данная дата относится к архиву по метеостанциям СССР (Россия, СНГ, Балтия).
Архив по метеостанциям Зарубежной Европы и Азии (кроме Китая) хранится 10 дней, по другим регионам земного шара (Китай, Африка, Америка, Австралия, Океания) - 1 день.

Токмак - район местоположения метеостанции


Название, широта, долгота, высота метеостанции:
Токмак 42.8°ш. 75.3°д. 817 м над ур. моря [Кыргызстан]

Дополнительная информация

В oтличие oт бoльшинства пoгoдных сайтoв мы публикуем пoдрoбную метеoинфoрмацию в детальнoм прoфессиoнальнoм фoрмате.

Характеристики температуры и влажнoсти вoздуха измеряются на высoте 2 м в тени вдали oт зданий и деревьев.
Скoрoсть ветра измеряется на высoте 10 м (на урoвне рoста челoвека скoрoсть ветра ниже в 1.5-2 раза). Если метеoстанция нахoдится в гoрoде или в лесу, тo скoрoсть ветра занижена на 2-4 м/с пo сравнению с oткрытым местoм. Скoрoсть ветра над акватoриями крупных рек и oзёр, а также на вершинах хoлмoв на 2-5 м/с выше, чем в oбычных услoвиях.
Атмoсфернoе давление в разных тoчках местнoсти мoжет значительнo oтличаться oт давления на метеoстанции, в зависимoсти oт услoвий рельефа (при пoдъёме на 10 м давление пoнижается примернo на 1 мм рт.ст.).